Regional Weather Roundup
Issued by NWS Goodland, KS

Home | Current Version | Previous Version | Graphics & Text | Print | Product List | Glossary On
Versions: 1 2 3 4 5 6 7 8 9 10 11 12 13 14 15 16 17 18 19 20 21 22 23 24 25 26 27 28 29 30 31 32 33 34 35 36 37 38 39 40 41 42 43 44 45 46 47 48 49 50
000
ASUS43 KGLD 192308
RWRGLD

GOODLAND FORECAST AREA HOURLY WEATHER ROUNDUP
NATIONAL WEATHER SERVICE GOODLAND KS
400 PM MST SUN NOV 19 2017

...OFFICIAL OBSERVATIONS...

CITY           SKY/WX    TMP DP  RH WIND       PRES   REMARKS
GOODLAND KS    CLEAR     56  13  18 SW8       29.98F
HILL CITY KS   PTCLDY    54  25  32 SW7       30.00F
IMPERIAL NEB   CLOUDY    56  21  25 S7        29.95F
MCCOOK NEB     CLOUDY    56  23  27 SW9       29.96F
AKRON CO       CLOUDY    53  12  19 NW5       29.97F
BURLINGTON CO  CLEAR     55  13  18 SW8       30.00F
LIMON CO       CLOUDY    50   9  19 SE7       30.02S
$$

...UNOFFICIAL OBSERVATIONS...

CITY           SKY/WX    TMP DP  RH WIND       PRES   REMARKS
COLBY KS       CLOUDY    55  28  35 S6        30.00F
LENORA KS        N/A     52  32  46 S7          N/A
NORTON KS      CLEAR     50  18  27 S5        29.97
SHARON SPRINGS   N/A     53  18  25 S9          N/A
TRENTON NEB      N/A     55  32  41 CALM        N/A
KIT CARSON CO    N/A     52  17  25 CALM        N/A
YUMA CO        FAIR      52  14  22 CALM      29.96F
$$




USA.gov is the U.S. government's official web portal to all federal, state and local government web resources and services.